User: anonymous   Login
Location: Albany
(35.0000°S, 118.0000°E)
Time: 23:18:25
(UTC-04:00)
Language:

Cosmos 1346 Rocket - Orbit

View from above orbital plane
View from above orbital plane
View from above satellite
View from above satellite

Ground track
Ground track

The orbit data is extracted from the following two-line orbital elements,

1 13121U 82027B   16145.12913542  .00000709  00000-0  44334-4 0  9999
2 13121  81.1694 205.9889 0026854  15.5233 344.6808 15.07893812858349
Epoch (UTC): 24 May 2016 03:05:57
Eccentricity: 0.0026854
inclination: 81.1694°
perigee height: 524 km
apogee height: 561 km
right ascension of ascending node: 205.9889°
argument of perigee: 15.5233°
revolutions per day: 15.07893812
mean anomaly at epoch: 344.6808°
orbit number at epoch: 85834

The dashed part of the orbit path shows where the satellite is in the earth's shadow,  

DLR